Flag for Australia Weather past 2 weeks in Dubbo, New South Wales, Australia

Now
45 °F

Clear.


Feels Like: 40 °F
Forecast: 33 / 58 °F
Wind: 9 mph from Southwest

Location: Dubbo Airport

Current Time: Aug 2, 2014 at 7:00:55 PM

Latest Report: Aug 2, 2014 at 6:00 PM


Visibility: N/A

Pressure: 30.36 "Hg

Humidity: 66%

Dew point: 34 °F

Location of DubboLocation

Historic Weather in Dubbo — Graph

°F

Dubbo temperature yesterday

Maximum temperature yesterday: 57 °F (at 3:04 PM)
Minimum temperature yesterday: 37 °F (at 10:00 PM)
Average temperature yesterday: 48 °F

Past Weeks' High & Low Weather Summary

 TemperatureHumidityPressure
High70 °F (Jul 31, 2:00 PM)100% (Jul 19, 3:00 AM)30.36 "Hg (Jul 19, 3:00 AM)
Low30 °F (Aug 2, 5:00 AM)29% (Jul 31, 2:30 PM)29.77 "Hg (Aug 1, 3:30 AM)
Average49 °F78%30.16 "Hg
* Reported Jul 18 5:00 PM — Aug 2 5:30 PM, Dubbo, Weather by CustomWeather, © 2014

Note: Actual official high and low records may vary slightly from our data, if they occured in-between our weather recording intervals... More about our weather records

Advertising

Dubbo weather history for previous 24 hours

 ConditionsComfort  
Time TempWeatherWind HumidityBarometerVisibility
5:30 PM
Aug 2
46 °FClear.10 mph62%30.36 "HgN/A
5:00 PM50 °FClear.10 mph54%30.36 "HgN/A
4:30 PM52 °FClear.12 mph50%30.33 "HgN/A
4:00 PM54 °FSunny.12 mph51%30.33 "HgN/A
3:00 PM55 °FSunny.7 mph47%30.33 "HgN/A
2:30 PM54 °FSunny.7 mph47%30.33 "HgN/A
2:00 PM55 °FSunny.8 mph44%30.33 "HgN/A
1:30 PM54 °FSunny.13 mph41%30.33 "HgN/A
1:00 PM54 °FSunny.8 mph47%30.33 "HgN/A
12:30 PM52 °FSunny.6 mph50%30.33 "HgN/A
12:00 PM50 °FSunny.9 mph54%30.36 "HgN/A
11:30 AM50 °FSunny.7 mph54%30.36 "HgN/A
11:00 AM48 °FSunny.3 mph58%30.36 "HgN/A
10:30 AM46 °FSunny.8 mph62%30.36 "HgN/A
10:00 AM45 °FSunny.8 mph71%30.36 "HgN/A
9:30 AM45 °FSunny.9 mph71%30.36 "HgN/A
9:00 AM41 °FSunny.8 mph76%30.33 "HgN/A
8:30 AM41 °FSunny.8 mph81%30.33 "HgN/A
8:00 AM39 °FPartly sunny.6 mph87%30.33 "HgN/A
7:30 AM36 °FOvercast.6 mph100%30.30 "HgN/A
7:00 AM34 °FPartly sunny.2 mph93%30.30 "HgN/A
6:30 AM34 °FOvercast.7 mph93%30.27 "HgN/A
6:00 AM34 °FPartly sunny.6 mph100%30.27 "HgN/A
5:30 AM30 °FOvercast.No wind100%30.24 "HgN/A
5:00 AM30 °FClear.No wind100%30.24 "HgN/A
4:30 AM32 °FClear.5 mph100%30.24 "HgN/A
4:00 AM34 °FClear.7 mph93%30.21 "HgN/A
3:30 AM36 °FClear.12 mph87%30.18 "HgN/A
3:00 AM37 °FClear.8 mph87%30.21 "HgN/A
2:30 AM39 °FClear.13 mph81%30.21 "HgN/A
2:00 AM37 °FClear.10 mph87%30.21 "HgN/A
1:30 AM37 °FClear.6 mph81%30.21 "HgN/A
1:00 AM39 °FClear.9 mph81%30.18 "HgN/A
12:30 AM41 °FClear.9 mph70%30.18 "HgN/A
12:00 AM41 °FClear.9 mph76%30.18 "HgN/A
11:30 PM
Aug 1
41 °FClear.10 mph76%30.18 "HgN/A
11:00 PM39 °FClear.8 mph75%30.18 "HgN/A
10:30 PM39 °FClear.8 mph75%30.15 "HgN/A
10:00 PM37 °FClear.8 mph75%30.15 "HgN/A
9:30 PM41 °FClear.7 mph66%30.12 "HgN/A
9:00 PM43 °FPassing clouds.9 mph66%30.12 "HgN/A
8:30 PM43 °FClear.9 mph66%30.12 "HgN/A
8:00 PM45 °FPassing clouds.10 mph61%30.09 "HgN/A
7:30 PM46 °FClear.12 mph57%30.07 "HgN/A
7:00 PM45 °FPassing clouds.10 mph61%30.07 "HgN/A
Weather by CustomWeather, © 2014

See weather overviewHow to use our weather pages